Regional Weather Roundup
Issued by NWS

Home | Current Version | Previous Version | Text Only | Print | Product List | Glossary Off
Versions: 1 2 3 4 5 6 7 8 9 10 11 12 13 14 15 16 17 18 19 20 21 22 23 24 25 26 27

000
ASUS45 KBOI 211910
RWRID

IDAHO REGIONAL WEATHER ROUNDUP
NATIONAL WEATHER SERVICE BOISE ID
1200 PM MST SUN JAN 21 2018

NOTE: "FAIR" INDICATES FEW OR NO CLOUDS BELOW 12000 FEET
WITH NO SIGNIFICANT WEATHER AND/OR OBSTRUCTIONS TO VISIBILITY

IDZ012-014-212000-
SOUTHWEST IDAHO


CITY           SKY/WX    TMP DP  RH WIND       PRES   REMARKS
BOISE          MOSUNNY   39  26  59 SE7       30.25S WCI  34
CALDWELL         N/A     40  29  64 E5        30.26F
MOUNTAIN HOME  MOSUNNY   39  29  67 NW3       30.24F
$$

IDZ016-017-212000-
SOUTHCENTRAL IDAHO


CITY           SKY/WX    TMP DP  RH WIND       PRES   REMARKS
BURLEY         PTSUNNY   35  24  64 W9        30.21S WCI  28
JEROME         SUNNY     34  25  69 W5        30.22S WCI  30
TWIN FALLS     SUNNY     36  24  62 W12       30.23S WCI  28
$$

IDZ019>023-212000-
SOUTHEAST IDAHO


CITY           SKY/WX    TMP DP  RH WIND       PRES   REMARKS
IDAHO FALLS    SUNNY     27  22  81 SW10      30.18F WCI  17
POCATELLO      MOSUNNY   32  23  69 SW13      30.21S WCI  22
REXBURG        SUNNY     21  17  84 W3        30.17S
$$

IDZ006-010-011-018-031-032-212000-
CENTRAL IDAHO MOUNTAINS


CITY           SKY/WX    TMP DP  RH WIND       PRES   REMARKS
MCCALL         FOG       20  19  96 S3        30.16S VSB 1/2
HAILEY         SUNNY     28  10  47 NW8       30.18S WCI  20
STANLEY          N/A     10   5  80 N3        30.16F
SALMON         SUNNY     27  18  69 SW3       30.22F
CHALLIS        SUNNY     28  13  53 SE8       30.17F WCI  20
$$

IDZ002-004-006-007-026-212000-
NORTHERN IDAHO


CITY           SKY/WX    TMP DP  RH WIND       PRES   REMARKS
LEWISTON       PTSUNNY   42  31  64 E7        30.11F
LOWELL           N/A     40  33  76 VRB3      30.20F
COEUR D`ALENE  PTSUNNY   39  32  76 CALM      30.07F
MULLAN PASS    CLOUDY    26  22  84 VRB5      29.99F WCI  20
$$




USA.gov is the U.S. government's official web portal to all federal, state and local government web resources and services.